Location: Kalwaria Zebrzydowska
(49.8686°N, 19.6647°E)
Time: 01:12:55
(UTC+01:00)

ISS - Pass Details

Date: 24 January 2019
Orbit: 403 x 411 km, 51.6° (Epoch: 22 February)

Event Time Altitude Azimuth Distance (km) Brightness Sun altitude
Rises 17:42:38 0° 207° (SSW) 2,323 0.7 -12.8°
Reaches altitude 10° 17:45:05 10° 189° (S) 1,468 -0.7 -13.2°
Maximum altitude 17:47:31 19° 141° (SE) 1,042 -2.0 -13.6°
Enters shadow 17:48:19 18° 121° (ESE) 1,099 -2.0 -13.7°
